Weather History for Berlin, NH

Change the Weather History Date:

Saturday, October 20, 2012

  Actual Average Record
Temperature  
Mean Temperature 61 °F -  
Max Temperature 72 °F 50 °F 72 °F (2012)
Min Temperature 51 °F 26 °F 15 °F (2003)
Degree Days  
Heating Degree Days 4    
Growing Degree Days 11 (Base 50)    
Moisture  
Dew Point 54 °F    
Average Humidity 88    
Maximum Humidity 100    
Minimum Humidity 49    
Precipitation  
Precipitation 0.09 in - - ()
Sea Level Pressure  
Sea Level Pressure 29.69 in    
Wind  
Wind Speed 3 mph (NW)    
Max Wind Speed 12 mph    
Max Gust Speed -    
Visibility 7 miles    
Events Fog , Rain    
Averages and records for this station are not official NWS values.
T = Trace of Precipitation, MM = Missing Value Source: NWS Daily Summary

Daily Weather History Graph

Daily Weather History Graph

Search for Another Location

Airport:

Trip Planner

Search our weather history database for the weather conditions in past years. The results will help you decide how hot, cold, wet, or windy it might be!

Date:

Astronomy

Oct. 20, 2012 Rise Set
Actual Time 7:06 AM EDT 5:51 PM EDT
Civil Twilight 6:37 AM EDT 6:20 PM EDT
Nautical Twilight 6:03 AM EDT 6:54 PM EDT
Astronomical Twilight 5:29 AM EDT 7:28 PM EDT
Moon 12:47 PM EDT (10/20) 10:27 PM EDT (10/20)
Length of Visible Light 11h 43m
Length of Day
10h 44m
Waxing Crescent, 34% of the Moon is Illuminated
Oct 20
Waxing Crescent
Oct 21
First Quarter
Oct 29
Full
Nov 6
Last Quarter
Nov 13
New

Hourly Weather History & Observations

Time (EDT) Temp. Dew Point Humidity Pressure Visibility Wind Dir Wind Speed Gust Speed Precip Events Conditions
12:25 AM 55.4 °F 53.6 °F 94% 29.76 in 10.0 mi NNW 3.5 mph - N/A   Overcast
12:52 AM 55.0 °F 53.1 °F 93% 29.77 in 10.0 mi NNW 3.5 mph - N/A   Overcast
1:52 AM 55.0 °F 53.1 °F 93% 29.76 in 10.0 mi Calm Calm - 0.01 in   Mostly Cloudy
2:13 AM 55.4 °F 53.6 °F 94% 29.75 in 10.0 mi Calm Calm - N/A   Mostly Cloudy
2:52 AM 54.0 °F 53.1 °F 97% 29.75 in 10.0 mi Calm Calm - 0.00 in   Overcast
3:52 AM 54.0 °F 53.1 °F 97% 29.73 in 10.0 mi Calm Calm - 0.00 in   Overcast
4:29 AM 53.6 °F 51.8 °F 94% 29.71 in 10.0 mi Variable 3.5 mph - N/A   Mostly Cloudy
4:41 AM 53.6 °F 51.8 °F 94% 29.71 in 10.0 mi North 4.6 mph - N/A   Scattered Clouds
4:52 AM 54.0 °F 53.1 °F 97% 29.72 in 10.0 mi NNW 4.6 mph - N/A   Partly Cloudy
5:28 AM 55.4 °F 53.6 °F 94% 29.72 in 10.0 mi Calm Calm - N/A   Overcast
5:52 AM 55.0 °F 54.0 °F 96% 29.72 in 10.0 mi NW 5.8 mph - N/A   Overcast
6:14 AM 57.2 °F 55.4 °F 94% 29.70 in 3.0 mi Calm Calm - 0.05 in Rain Heavy Rain
6:22 AM 57.2 °F 55.4 °F 94% 29.70 in 2.5 mi North 3.5 mph - 0.07 in Rain Rain
6:30 AM 57.2 °F 55.4 °F 94% 29.70 in 9.0 mi Calm Calm - 0.07 in Rain Light Rain
6:52 AM 57.0 °F 55.0 °F 93% 29.70 in 10.0 mi North 4.6 mph - 0.07 in   Overcast
7:28 AM 55.4 °F 53.6 °F 94% 29.67 in 1.8 mi WNW 3.5 mph - N/A   Scattered Clouds
7:31 AM 55.4 °F 53.6 °F 94% 29.67 in 0.8 mi NW 4.6 mph - N/A   Scattered Clouds
7:52 AM 55.0 °F 54.0 °F 96% 29.68 in 1.2 mi Calm Calm - N/A   Scattered Clouds
7:56 AM 55.4 °F 53.6 °F 94% 29.68 in 0.8 mi SSW 3.5 mph - N/A   Mist
8:06 AM 55.4 °F 53.6 °F 94% 29.68 in 0.2 mi Calm Calm - N/A Fog Fog
8:19 AM 55.4 °F 55.4 °F 100% 29.68 in 0.8 mi Calm Calm - N/A   Overcast
8:28 AM 57.2 °F 55.4 °F 94% 29.68 in 1.2 mi Calm Calm - N/A   Overcast
8:34 AM 57.2 °F 55.4 °F 94% 29.69 in 2.0 mi Calm Calm - N/A   Overcast
8:40 AM 57.2 °F 55.4 °F 94% 29.68 in 5.0 mi North 3.5 mph - N/A   Mostly Cloudy
8:52 AM 59.0 °F 57.9 °F 96% 29.68 in 9.0 mi North 3.5 mph - N/A   Mostly Cloudy
9:52 AM 63.0 °F 60.1 °F 90% 29.67 in 10.0 mi Calm Calm - N/A   Overcast
10:52 AM 64.9 °F 60.1 °F 84% 29.66 in 10.0 mi SSW 4.6 mph - N/A   Mostly Cloudy
11:52 AM 66.9 °F 57.9 °F 73% 29.65 in 10.0 mi SSE 5.8 mph - N/A   Scattered Clouds
12:52 PM 70.0 °F 59.0 °F 68% 29.63 in 10.0 mi SE 11.5 mph - N/A   Clear
1:52 PM 71.1 °F 55.9 °F 59% 29.59 in 10.0 mi SSE 9.2 mph - N/A   Clear
3:52 PM 71.1 °F 51.1 °F 49% 29.57 in 10.0 mi SW 6.9 mph - N/A   Mostly Cloudy
5:52 PM 63.0 °F 48.9 °F 60% 29.61 in 9.0 mi Calm Calm - 0.00 in Rain Light Rain
6:52 PM 55.0 °F 53.1 °F 93% 29.62 in 9.0 mi SSE 3.5 mph - 0.01 in   Mostly Cloudy
7:52 PM 59.0 °F 45.0 °F 60% 29.65 in 10.0 mi West 8.1 mph - N/A   Overcast
9:52 PM 51.1 °F 46.0 °F 83% 29.68 in 10.0 mi NE 3.5 mph - N/A   Clear
10:52 PM 54.0 °F 46.0 °F 75% 29.69 in 10.0 mi Calm Calm - N/A   Overcast
11:52 PM 54.0 °F 46.9 °F 77% 29.69 in 10.0 mi North 3.5 mph - N/A   Overcast